Погода в Полетаеве

Россия / Челябинская область     55°02′03″N   61°06′42″E
темп.,
°C
ветер,
м/с
пор.,
м/с
влажн.,
%
обл.,
%
осадки,
мм/ч
давл.,
гПа
погр.,
м
5 марта, пт
пт523:00−8ююз6138536 0.0 1000281
02:00−6ююз81783100 0.0 997558
05:00−4юз81782100 0.0 995496
08:00−4зюз7167467 0.3 997484
11:00−2зюз6137783 0.3 10001047
14:000зюз5875100 0.0 10001253
17:00−1ююз3796100 1.0 1000548
20:00−3сз3596100 1.5 998142
6 марта, сб
сб623:00−6ссз4995100 1.9 1001371
02:00−11з488744 0.0 1006128
05:00−13з5128622 0.0 1010210
08:00−14з48870 0.0 1011120
11:00−9з610810 0.0 1011586
14:00−5з587423 0.0 10111199
17:00−6юз378115 0.1 1011219
20:00−10юз458693 0.1 101175
7 марта, вс
вс723:00−12зюз348685 0.1 101353
02:00−13з348751 0.0 101235
05:00−14зсз228675 0.0 101320
08:00−15вюв1186100 0.0 101220
11:00−10в2393100 0.2 1010239
14:00−9св3495100 0.9 1006329
17:00−9ссв5795100 2.3 1004416
20:00−11с61094100 0.9 1004374
8 марта, пн
пн823:00−14ссз479697 1.0 1007121
02:00−17зсз449028 0.0 100964
05:00−19зсз348914 0.0 101041
08:00−20зюз34900 0.0 101138
11:00−14ююз468533 0.0 1010253
14:00−10ююз61092100 0.1 1008515
17:00−8ююз71286100 0.3 1006749
20:00−10ююз4109457 0.1 1007210
9 марта, вт
вт923:00−12юз478345 0.1 100993
02:00−13ююз478389 0.0 1009105
05:00−7ю8149494 0.7 1005589
08:00−5ю101790100 0.9 1000993
11:00−6юз111965100 1.1 9981687
14:00−5зюз12226658 0.0 10012378
17:00−5з9187279 0.1 10051475
20:00−9зюз715780 0.0 1008538